Cloud_Cover
0 0 0 0 0 0 0 0 0 0 0 0 0 0 0 0 0 0 0 0 0 0 0 0 0 0 0 0 0 0 0 0 0 0 0 0 0 0 0 0 0 0 0 0
0 0 0 0 0 0 0 0 0 0 0 0 0 0 0 0 0 0 0 0 0 0 0 0 0 0 0 0 0 0 0 0 0 0 0 0 0 0 0 0 0 0 0 0
2 4 0 0 0 0 0 0 0 0 0 0 0 0 3 2 0 0 0 0 0 0 0 0 0 0 0 0 0 0 0 0 0 0 0 0 0 0 0 0 0 0 0 0
44 32 4 0 0 0 0 0 0 0 0 0 0 4 5 0 0 0 0 0 0 0 0 0 0 0 0 0 0 0 0 0 0 0 0 0 0 0 0 0 0 0 0 0
92 100 6 0 0 0 0 0 0 0 0 0 5 3 5 0 0 0 0 0 0 0 0 0 0 0 0 0 0 0 0 0 0 0 0 0 0 0 0 0 0 0 0 0
100 100 100 6 1 0 0 0 0 0 0 0 4 0 0 4 0 0 0 2 4 5 1 0 0 0 0 0 0 0 0 0 0 0 0 0 0 0 0 0 0 0 0 0
100 100 100 96 5 0 0 3 23 21 3 5 9 5 42 5 5 5 5 5 5 0 0 0 0 0 0 0 0 0 0 0 0 0 0 0 0 0 0 0 0 0 0 0
100 100 100 91 5 4 4 5 5 5 12 9 54 54 100 99 94 72 6 0 0 0 0 0 0 0 0 0 0 0 0 0 0 0 0 0 0 0 0 0 0 0 0 5
100 100 100 100 72 30 43 35 23 5 5 12 49 100 100 98 14 0 0 0 0 0 0 0 0 0 0 0 0 0 0 0 0 0 0 0 0 0 0 0 0 2 5 5
69 77 98 97 47 7 5 36 97 97 35 96 100 68 34 5 0 0 0 0 0 0 0 0 0 0 0 0 0 0 0 0 0 0 0 0 0 0 0 0 5 5 6 10
5 6 5 19 78 84 87 100 98 96 60 3 0 0 0 20 0 0 0 0 0 0 0 0 0 0 0 0 0 0 0 0 2 4 0 0 0 0 5 5 5 5 5 7
0 4 5 5 80 95 81 29 4 0 0 0 0 0 0 0 0 0 0 0 0 0 0 0 0 0 0 0 0 0 0 5 2 0 0 3 5 5 5 26 5 5 5 5
1 0 2 0 0 0 0 0 0 0 0 0 0 0 0 0 0 0 0 0 0 0 0 0 0 0 0 0 2 8 12 5 5 5 5 5 5 5 5 5 5 5 5 4
2 2 0 0 0 0 2 4 3 4 2 1 7 0 1 0 0 0 0 0 1 5 5 5 5 5 5 5 5 32 50 31 6 24 22 5 5 5 5 5 5 5 5 5
100 100 99 99 92 89 91 80 46 81 73 80 97 48 87 26 6 30 57 50 43 37 20 5 5 5 5 6 5 5 5 5 14 8 16 51 54 23 22 18 5 5 5 6
100 100 100 100 100 100 100 100 100 100 100 100 100 100 100 100 98 84 80 66 55 62 81 83 80 86 74 34 5 5 56 73 13 16 15 5 5 5 5 5 5 6 26 28
6 20 8 70 9 34 95 97 86 81 84 100 100 92 97 100 100 100 100 100 100 100 100 100 100 100 100 100 100 100 100 98 67 33 10 12 13 5 5 5 5 5 4 5
3 5 5 6 5 5 4 26 22 4 1 0 0 0 3 5 4 4 58 93 74 60 65 80 77 93 100 90 37 31 66 84 69 31 19 18 5 6 5 5 6 5 5 5
2 5 5 5 11 2 0 2 0 0 0 0 0 0 2 5 5 5 5 5 5 7 10 17 31 47 72 68 67 99 100 98 94 72 25 54 5 5 5 5 5 5 5 14
4 5 9 61 56 5 0 6 6 2 5 1 5 5 6 5 16 100 20 6 5 5 25 86 100 100 100 100 88 86 43 54 55 76 19 8 5 5 5 5 0 0 0 0
44 47 20 36 100 26 9 5 5 38 66 12 25 82 98 97 93 59 46 32 94 100 100 100 100 100 100 100 100 100 97 87 82 81 96 5 18 0 0 0 3 5 5 4
100 100 100 96 100 78 5 5 13 43 81 100 99 100 81 89 93 80 88 95 100 100 100 100 100 100 100 100 96 28 14 5 2 0 3 1 2 0 3 4 1 0 0 0
100 100 100 100 80 100 100 93 79 100 100 100 100 86 63 59 91 100 99 99 99 100 100 100 91 41 7 7 5 39 98 98 95 79 36 60 48 5 5 5 5 5 2 5
100 100 100 100 97 82 92 99 100 92 74 78 99 100 100 100 98 90 57 5 5 39 3 1 1 5 26 100 78 26 52 58 6 5 5 5 5 5 6 5 5 5 5 4
100 100 100 90 100 100 100 100 100 100 100 100 100 100 100 100 97 72 4 1 0 0 0 1 3 5 5 18 18 4 5 2 5 5 5 5 5 3 4 4 1 0 0 0
100 100 100 95 98 100 100 100 100 100 100 100 100 82 100 98 7 0 0 0 0 2 0 0 4 1 0 0 0 0 0 0 0 0 4 5 5 5 5 5 3 2 3 2